Time,TemperatureF,DewpointF,PressureIn,WindDirection,WindDirectionDegrees,WindSpeedMPH,WindSpeedGustMPH,Humidity,HourlyPrecipIn,Conditions,Clouds,dailyrainin,SoftwareType,DateUTC
2013-06-26 00:01:00,59.8,57.4,30.09,North,0,0.0,0.0,92,0.00,,,0.00,WUHU216HW,2013-06-26 07:01:00,
2013-06-26 00:06:00,59.8,57.4,30.09,North,0,0.0,0.0,92,0.00,,,0.00,WUHU216HW,2013-06-26 07:06:00,
2013-06-26 00:11:00,59.8,57.4,30.09,North,0,0.0,0.0,92,0.00,,,0.00,WUHU216HW,2013-06-26 07:11:00,
2013-06-26 00:16:00,59.8,57.4,30.08,North,0,0.0,0.0,92,0.00,,,0.00,WUHU216HW,2013-06-26 07:16:00,
2013-06-26 00:21:00,59.8,57.4,30.08,North,0,0.0,0.0,92,0.00,,,0.00,WUHU216HW,2013-06-26 07:21:00,
2013-06-26 00:26:00,59.9,57.6,30.09,North,0,0.0,0.0,92,0.00,,,0.00,WUHU216HW,2013-06-26 07:26:00,
2013-06-26 00:31:00,59.9,57.6,30.08,North,0,0.0,0.0,92,0.00,,,0.00,WUHU216HW,2013-06-26 07:31:00,
2013-06-26 00:36:00,59.9,57.6,30.09,North,0,0.0,0.0,92,0.00,,,0.00,WUHU216HW,2013-06-26 07:36:00,
2013-06-26 00:41:00,59.9,57.6,30.09,North,0,0.0,0.0,92,0.00,,,0.00,WUHU216HW,2013-06-26 07:41:00,
2013-06-26 00:46:00,59.9,57.6,30.09,North,0,0.0,0.0,92,0.00,,,0.00,WUHU216HW,2013-06-26 07:46:00,
2013-06-26 00:51:00,59.9,57.6,30.09,North,0,0.0,0.0,92,0.00,,,0.00,WUHU216HW,2013-06-26 07:51:00,
2013-06-26 00:56:00,60.1,58.2,30.09,North,0,0.0,0.0,93,0.00,,,0.00,WUHU216HW,2013-06-26 07:56:00,
2013-06-26 01:01:00,60.1,58.2,30.08,North,0,0.0,0.0,93,0.00,,,0.00,WUHU216HW,2013-06-26 08:01:00,
2013-06-26 01:06:00,60.1,58.2,30.09,North,0,0.0,0.0,93,0.00,,,0.00,WUHU216HW,2013-06-26 08:06:00,
2013-06-26 01:11:00,60.1,58.2,30.08,North,0,0.0,0.0,93,0.00,,,0.00,WUHU216HW,2013-06-26 08:11:00,
2013-06-26 01:16:00,60.1,58.2,30.09,North,0,0.0,0.0,93,0.00,,,0.00,WUHU216HW,2013-06-26 08:16:00,
2013-06-26 01:21:00,60.1,58.2,30.09,North,0,0.0,0.0,93,0.00,,,0.00,WUHU216HW,2013-06-26 08:21:00,
2013-06-26 01:26:00,60.1,58.2,30.09,North,0,0.0,0.0,93,0.00,,,0.00,WUHU216HW,2013-06-26 08:26:00,
2013-06-26 01:31:00,60.1,58.2,30.08,North,0,0.0,0.0,93,0.00,,,0.00,WUHU216HW,2013-06-26 08:31:00,
2013-06-26 01:36:00,60.1,58.2,30.09,North,0,0.0,0.0,93,0.00,,,0.00,WUHU216HW,2013-06-26 08:36:00,
2013-06-26 01:41:00,60.1,58.2,30.09,North,0,0.0,0.0,93,0.00,,,0.00,WUHU216HW,2013-06-26 08:41:00,
2013-06-26 01:46:00,60.1,58.2,30.09,North,0,0.0,0.0,93,0.00,,,0.00,WUHU216HW,2013-06-26 08:46:00,
2013-06-26 01:51:00,60.1,58.2,30.08,North,0,0.0,0.0,93,0.00,,,0.00,WUHU216HW,2013-06-26 08:51:00,
2013-06-26 01:56:00,60.1,58.2,30.09,North,0,0.0,0.0,93,0.00,,,0.00,WUHU216HW,2013-06-26 08:56:00,
2013-06-26 02:01:00,60.3,58.3,30.09,North,0,0.0,0.0,93,0.00,,,0.00,WUHU216HW,2013-06-26 09:01:00,
2013-06-26 02:06:00,60.3,58.3,30.09,North,0,0.0,0.0,93,0.00,,,0.00,WUHU216HW,2013-06-26 09:06:00,
2013-06-26 02:11:00,60.3,58.3,30.08,North,0,0.0,0.0,93,0.00,,,0.00,WUHU216HW,2013-06-26 09:11:00,
2013-06-26 02:16:00,60.3,58.3,30.08,North,0,0.0,0.0,93,0.00,,,0.00,WUHU216HW,2013-06-26 09:16:00,
2013-06-26 02:26:00,60.1,58.2,30.08,North,0,0.0,0.0,93,0.00,,,0.00,WUHU216HW,2013-06-26 09:26:00,
2013-06-26 02:31:00,60.1,58.2,30.08,North,0,0.0,0.0,93,0.00,,,0.00,WUHU216HW,2013-06-26 09:31:00,
2013-06-26 02:36:00,60.1,58.2,30.08,North,0,0.0,0.0,93,0.00,,,0.00,WUHU216HW,2013-06-26 09:36:00,
2013-06-26 02:41:00,60.3,58.3,30.08,North,0,0.0,0.0,93,0.00,,,0.00,WUHU216HW,2013-06-26 09:41:00,
2013-06-26 02:46:00,60.3,58.3,30.08,North,0,0.0,0.0,93,0.00,,,0.00,WUHU216HW,2013-06-26 09:46:00,
2013-06-26 02:51:00,60.3,58.3,30.08,North,0,0.0,0.0,93,0.00,,,0.00,WUHU216HW,2013-06-26 09:51:00,
2013-06-26 02:56:00,60.3,58.3,30.08,North,0,0.0,0.0,93,0.00,,,0.00,WUHU216HW,2013-06-26 09:56:00,
2013-06-26 03:01:00,60.3,58.3,30.08,North,0,0.0,0.0,93,0.00,,,0.00,WUHU216HW,2013-06-26 10:01:00,
2013-06-26 03:06:00,60.3,58.3,30.08,North,0,0.0,0.0,93,0.00,,,0.00,WUHU216HW,2013-06-26 10:06:00,
2013-06-26 03:11:00,60.3,58.3,30.08,North,0,0.0,0.0,93,0.00,,,0.00,WUHU216HW,2013-06-26 10:11:00,
2013-06-26 03:16:00,60.5,58.5,30.08,North,0,0.0,0.0,93,0.00,,,0.00,WUHU216HW,2013-06-26 10:16:00,
2013-06-26 03:21:00,60.5,58.5,30.08,North,0,0.0,0.0,93,0.00,,,0.00,WUHU216HW,2013-06-26 10:21:00,
2013-06-26 03:26:00,60.3,58.3,30.08,North,0,0.0,0.0,93,0.00,,,0.00,WUHU216HW,2013-06-26 10:26:00,
2013-06-26 03:31:00,60.3,58.3,30.08,North,0,0.0,0.0,93,0.00,,,0.00,WUHU216HW,2013-06-26 10:31:00,
2013-06-26 03:36:00,60.3,58.3,30.08,North,0,0.0,0.0,93,0.00,,,0.00,WUHU216HW,2013-06-26 10:36:00,
2013-06-26 03:41:00,60.3,58.3,30.08,North,0,0.0,0.0,93,0.00,,,0.00,WUHU216HW,2013-06-26 10:41:00,
2013-06-26 03:46:00,60.3,58.3,30.08,North,0,0.0,0.0,93,0.00,,,0.00,WUHU216HW,2013-06-26 10:46:00,
2013-06-26 03:51:00,60.3,58.3,30.08,North,0,0.0,0.0,93,0.00,,,0.00,WUHU216HW,2013-06-26 10:51:00,
2013-06-26 03:56:00,60.5,58.5,30.08,North,0,0.0,0.0,93,0.00,,,0.00,WUHU216HW,2013-06-26 10:56:00,
2013-06-26 04:01:00,60.5,58.5,30.08,North,0,0.0,0.0,93,0.00,,,0.00,WUHU216HW,2013-06-26 11:01:00,
2013-06-26 04:06:00,60.5,58.5,30.08,North,0,0.0,0.0,93,0.00,,,0.00,WUHU216HW,2013-06-26 11:06:00,
2013-06-26 04:11:00,60.5,58.5,30.08,North,0,0.0,0.0,93,0.00,,,0.00,WUHU216HW,2013-06-26 11:11:00,
2013-06-26 04:16:00,60.5,58.5,30.08,North,0,0.0,0.0,93,0.00,,,0.00,WUHU216HW,2013-06-26 11:16:00,
2013-06-26 04:21:00,60.3,58.6,30.08,North,0,0.0,0.0,94,0.00,,,0.00,WUHU216HW,2013-06-26 11:21:00,
2013-06-26 04:26:00,60.1,58.4,30.08,North,0,0.0,0.0,94,0.00,,,0.00,WUHU216HW,2013-06-26 11:26:00,
2013-06-26 04:31:00,60.3,58.6,30.08,North,0,0.0,0.0,94,0.00,,,0.00,WUHU216HW,2013-06-26 11:31:00,
2013-06-26 04:36:00,60.1,58.4,30.08,North,0,0.0,0.0,94,0.00,,,0.00,WUHU216HW,2013-06-26 11:36:00,
2013-06-26 04:41:00,60.1,58.4,30.08,North,0,0.0,0.0,94,0.00,,,0.00,WUHU216HW,2013-06-26 11:41:00,
2013-06-26 04:46:00,60.1,58.4,30.08,North,0,0.0,0.0,94,0.00,,,0.00,WUHU216HW,2013-06-26 11:46:00,
2013-06-26 04:51:00,60.1,58.4,30.09,North,0,0.0,0.0,94,0.00,,,0.00,WUHU216HW,2013-06-26 11:51:00,
2013-06-26 04:56:00,60.1,58.4,30.09,North,0,0.0,0.0,94,0.00,,,0.00,WUHU216HW,2013-06-26 11:56:00,
2013-06-26 05:01:00,60.1,58.4,30.09,North,0,0.0,0.0,94,0.00,,,0.00,WUHU216HW,2013-06-26 12:01:00,
2013-06-26 05:06:00,60.1,58.4,30.09,North,0,0.0,0.0,94,0.00,,,0.00,WUHU216HW,2013-06-26 12:06:00,
2013-06-26 05:11:00,60.1,58.4,30.09,North,0,0.0,0.0,94,0.00,,,0.00,WUHU216HW,2013-06-26 12:11:00,
2013-06-26 05:16:00,60.1,58.4,30.09,North,0,0.0,0.0,94,0.00,,,0.00,WUHU216HW,2013-06-26 12:16:00,
2013-06-26 05:21:00,60.3,58.6,30.09,North,0,0.0,0.0,94,0.00,,,0.00,WUHU216HW,2013-06-26 12:21:00,
2013-06-26 05:26:00,60.5,58.8,30.10,North,0,0.0,0.0,94,0.00,,,0.00,WUHU216HW,2013-06-26 12:26:00,
2013-06-26 05:31:00,60.5,58.8,30.10,North,0,0.0,0.0,94,0.00,,,0.00,WUHU216HW,2013-06-26 12:31:00,
2013-06-26 05:36:00,60.5,58.8,30.10,North,0,0.0,0.0,94,0.00,,,0.00,WUHU216HW,2013-06-26 12:36:00,
2013-06-26 05:41:00,60.5,58.8,30.10,North,0,0.0,0.0,94,0.00,,,0.00,WUHU216HW,2013-06-26 12:41:00,
2013-06-26 05:46:00,60.5,58.8,30.10,North,0,0.0,0.0,94,0.00,,,0.00,WUHU216HW,2013-06-26 12:46:00,
2013-06-26 05:51:00,60.7,59.0,30.10,North,0,0.0,0.0,94,0.00,,,0.00,WUHU216HW,2013-06-26 12:51:00,
2013-06-26 05:56:00,60.7,59.0,30.10,North,0,0.0,0.0,94,0.00,,,0.00,WUHU216HW,2013-06-26 12:56:00,
2013-06-26 06:01:00,60.7,59.0,30.11,North,0,0.0,0.0,94,0.00,,,0.00,WUHU216HW,2013-06-26 13:01:00,
2013-06-26 06:06:00,60.7,59.0,30.11,North,0,0.0,0.0,94,0.00,,,0.00,WUHU216HW,2013-06-26 13:06:00,
2013-06-26 06:11:00,60.7,59.0,30.11,North,0,0.0,0.0,94,0.00,,,0.00,WUHU216HW,2013-06-26 13:11:00,
2013-06-26 06:16:00,60.8,59.1,30.11,North,0,0.0,0.0,94,0.00,,,0.00,WUHU216HW,2013-06-26 13:16:00,
2013-06-26 06:21:00,60.8,59.1,30.11,North,0,0.0,0.0,94,0.00,,,0.00,WUHU216HW,2013-06-26 13:21:00,
2013-06-26 06:27:00,60.8,59.1,30.11,North,0,0.0,0.0,94,0.00,,,0.00,WUHU216HW,2013-06-26 13:27:00,
2013-06-26 06:32:00,60.8,59.1,30.11,North,0,0.0,0.0,94,0.00,,,0.00,WUHU216HW,2013-06-26 13:32:00,
2013-06-26 06:37:00,60.8,59.1,30.12,North,0,0.0,0.0,94,0.00,,,0.00,WUHU216HW,2013-06-26 13:37:00,
2013-06-26 06:42:00,61.0,59.3,30.12,North,0,0.0,0.0,94,0.00,,,0.00,WUHU216HW,2013-06-26 13:42:00,
2013-06-26 06:47:00,61.2,59.5,30.12,North,0,0.0,0.0,94,0.00,,,0.00,WUHU216HW,2013-06-26 13:47:00,
2013-06-26 06:52:00,61.2,59.5,30.12,North,0,0.0,0.0,94,0.00,,,0.00,WUHU216HW,2013-06-26 13:52:00,
2013-06-26 06:57:00,61.4,59.7,30.12,North,0,0.0,0.0,94,0.00,,,0.00,WUHU216HW,2013-06-26 13:57:00,
2013-06-26 07:02:00,61.6,59.9,30.12,North,0,0.0,0.0,94,0.00,,,0.00,WUHU216HW,2013-06-26 14:02:00,
2013-06-26 07:07:00,61.6,59.9,30.12,North,0,0.0,0.0,94,0.00,,,0.00,WUHU216HW,2013-06-26 14:07:00,
2013-06-26 07:12:00,61.7,60.0,30.13,North,0,0.0,0.0,94,0.00,,,0.00,WUHU216HW,2013-06-26 14:12:00,
2013-06-26 07:17:00,61.9,60.2,30.13,North,0,0.0,0.0,94,0.00,,,0.00,WUHU216HW,2013-06-26 14:17:00,
2013-06-26 07:22:00,61.9,60.2,30.13,North,0,0.0,0.0,94,0.00,,,0.00,WUHU216HW,2013-06-26 14:22:00,
2013-06-26 07:27:00,62.1,60.4,30.13,North,0,0.0,0.0,94,0.00,,,0.00,WUHU216HW,2013-06-26 14:27:00,
2013-06-26 07:32:00,62.3,60.6,30.13,North,0,0.0,0.0,94,0.00,,,0.00,WUHU216HW,2013-06-26 14:32:00,
2013-06-26 07:37:00,62.5,60.8,30.13,North,0,0.0,0.0,94,0.00,,,0.00,WUHU216HW,2013-06-26 14:37:00,
2013-06-26 07:42:00,62.8,61.1,30.13,North,0,0.0,0.0,94,0.00,,,0.00,WUHU216HW,2013-06-26 14:42:00,
2013-06-26 07:47:00,63.0,61.3,30.13,North,0,0.0,0.0,94,0.00,,,0.00,WUHU216HW,2013-06-26 14:47:00,
2013-06-26 07:52:00,63.2,61.5,30.13,North,0,0.0,0.0,94,0.00,,,0.00,WUHU216HW,2013-06-26 14:52:00,
2013-06-26 07:57:00,63.4,61.7,30.13,North,0,0.0,0.0,94,0.00,,,0.00,WUHU216HW,2013-06-26 14:57:00,
2013-06-26 08:02:00,63.5,61.8,30.13,North,0,0.0,0.0,94,0.00,,,0.00,WUHU216HW,2013-06-26 15:02:00,
2013-06-26 08:07:00,63.5,61.6,30.14,North,0,0.0,0.0,93,0.00,,,0.00,WUHU216HW,2013-06-26 15:07:00,
2013-06-26 08:12:00,63.5,61.8,30.13,North,0,0.0,0.0,94,0.00,,,0.00,WUHU216HW,2013-06-26 15:12:00,
2013-06-26 08:17:00,63.7,61.8,30.14,North,0,0.0,0.0,93,0.00,,,0.00,WUHU216HW,2013-06-26 15:17:00,
2013-06-26 08:22:00,64.1,62.1,30.14,North,0,0.0,0.0,93,0.00,,,0.00,WUHU216HW,2013-06-26 15:22:00,
2013-06-26 08:27:00,64.3,62.3,30.14,North,0,0.0,0.0,93,0.00,,,0.00,WUHU216HW,2013-06-26 15:27:00,
2013-06-26 08:32:00,64.4,62.5,30.14,North,0,0.0,0.0,93,0.00,,,0.00,WUHU216HW,2013-06-26 15:32:00,
2013-06-26 08:37:00,65.0,62.9,30.14,North,0,0.0,0.0,93,0.00,,,0.00,WUHU216HW,2013-06-26 15:37:00,
2013-06-26 08:42:00,65.2,63.1,30.14,North,0,0.0,0.0,93,0.00,,,0.00,WUHU216HW,2013-06-26 15:42:00,
2013-06-26 08:47:00,65.5,63.5,30.14,North,0,0.0,0.0,93,0.00,,,0.00,WUHU216HW,2013-06-26 15:47:00,
2013-06-26 08:52:00,65.9,63.5,30.14,North,0,0.0,0.0,92,0.00,,,0.00,WUHU216HW,2013-06-26 15:52:00,
2013-06-26 08:57:00,66.6,64.4,30.14,North,0,0.0,0.0,93,0.00,,,0.00,WUHU216HW,2013-06-26 15:57:00,
2013-06-26 09:02:00,67.0,64.5,30.14,North,0,0.0,0.0,92,0.00,,,0.00,WUHU216HW,2013-06-26 16:02:00,
2013-06-26 09:07:00,68.0,65.3,30.14,North,0,0.0,0.0,91,0.00,,,0.00,WUHU216HW,2013-06-26 16:07:00,
2013-06-26 09:12:00,68.9,65.3,30.14,North,0,0.0,0.0,88,0.00,,,0.00,WUHU216HW,2013-06-26 16:12:00,
2013-06-26 09:17:00,68.8,64.4,30.14,North,0,0.0,0.0,86,0.00,,,0.00,WUHU216HW,2013-06-26 16:17:00,
2013-06-26 09:22:00,68.8,64.4,30.14,North,0,0.0,0.0,86,0.00,,,0.00,WUHU216HW,2013-06-26 16:22:00,
2013-06-26 09:27:00,69.1,64.7,30.14,North,0,0.0,0.0,86,0.00,,,0.00,WUHU216HW,2013-06-26 16:27:00,
2013-06-26 09:32:00,69.3,64.5,30.14,North,0,0.0,0.0,85,0.00,,,0.00,WUHU216HW,2013-06-26 16:32:00,
2013-06-26 09:37:00,69.8,65.1,30.14,North,0,0.0,0.0,85,0.00,,,0.00,WUHU216HW,2013-06-26 16:37:00,
2013-06-26 09:42:00,71.5,67.1,30.14,North,0,0.0,0.0,86,0.00,,,0.00,WUHU216HW,2013-06-26 16:42:00,
2013-06-26 09:47:00,73.1,67.0,30.14,North,0,0.0,0.0,81,0.00,,,0.00,WUHU216HW,2013-06-26 16:47:00,
2013-06-26 09:52:00,73.4,67.7,30.14,North,0,0.0,0.0,82,0.00,,,0.00,WUHU216HW,2013-06-26 16:52:00,
2013-06-26 09:57:00,74.3,68.2,30.14,North,0,0.0,0.0,81,0.00,,,0.00,WUHU216HW,2013-06-26 16:57:00,
2013-06-26 10:02:00,74.9,68.4,30.14,North,0,0.0,0.0,80,0.00,,,0.00,WUHU216HW,2013-06-26 17:02:00,
2013-06-26 10:07:00,76.0,69.0,30.14,North,0,0.0,0.0,79,0.00,,,0.00,WUHU216HW,2013-06-26 17:07:00,
2013-06-26 10:12:00,77.4,70.0,30.14,North,0,0.0,0.0,78,0.00,,,0.00,WUHU216HW,2013-06-26 17:12:00,
2013-06-26 10:17:00,79.2,70.9,30.13,North,0,0.0,0.0,76,0.00,,,0.00,WUHU216HW,2013-06-26 17:17:00,
2013-06-26 10:22:00,79.9,70.9,30.14,North,0,0.0,0.0,74,0.00,,,0.00,WUHU216HW,2013-06-26 17:22:00,
2013-06-26 10:27:00,80.3,70.0,30.14,North,0,0.0,0.0,71,0.00,,,0.00,WUHU216HW,2013-06-26 17:27:00,
2013-06-26 10:32:00,79.6,67.1,30.14,North,0,0.0,0.0,66,0.00,,,0.00,WUHU216HW,2013-06-26 17:32:00,
2013-06-26 10:37:00,78.3,66.4,30.14,North,0,0.0,0.0,67,0.00,,,0.00,WUHU216HW,2013-06-26 17:37:00,
2013-06-26 10:42:00,78.5,67.9,30.13,North,0,0.0,0.0,70,0.00,,,0.00,WUHU216HW,2013-06-26 17:42:00,
2013-06-26 10:47:00,78.8,68.2,30.13,North,0,0.0,0.0,70,0.00,,,0.00,WUHU216HW,2013-06-26 17:47:00,
2013-06-26 10:52:00,79.6,67.6,30.13,North,0,0.0,0.0,67,0.00,,,0.00,WUHU216HW,2013-06-26 17:52:00,
2013-06-26 10:57:00,79.6,68.0,30.13,North,0,0.0,0.0,68,0.00,,,0.00,WUHU216HW,2013-06-26 17:57:00,
2013-06-26 11:02:00,79.7,68.7,30.13,North,0,0.0,0.0,69,0.00,,,0.00,WUHU216HW,2013-06-26 18:02:00,
2013-06-26 11:07:00,79.6,67.1,30.14,North,0,0.0,0.0,66,0.00,,,0.00,WUHU216HW,2013-06-26 18:07:00,
2013-06-26 11:12:00,79.4,67.9,30.13,North,0,0.0,0.0,68,0.00,,,0.00,WUHU216HW,2013-06-26 18:12:00,
2013-06-26 11:17:00,79.9,68.0,30.13,North,0,0.0,0.0,67,0.00,,,0.00,WUHU216HW,2013-06-26 18:17:00,
2013-06-26 11:22:00,80.5,68.5,30.13,North,0,0.0,0.0,67,0.00,,,0.00,WUHU216HW,2013-06-26 18:22:00,
2013-06-26 11:27:00,81.0,69.0,30.13,North,0,0.0,0.0,67,0.00,,,0.00,WUHU216HW,2013-06-26 18:27:00,
2013-06-26 11:32:00,81.5,68.6,30.14,North,0,0.0,0.0,65,0.00,,,0.00,WUHU216HW,2013-06-26 18:32:00,
2013-06-26 11:37:00,81.2,68.7,30.13,North,0,0.0,0.0,66,0.00,,,0.00,WUHU216HW,2013-06-26 18:37:00,
2013-06-26 11:42:00,81.5,68.6,30.13,North,0,0.0,0.0,65,0.00,,,0.00,WUHU216HW,2013-06-26 18:42:00,
2013-06-26 11:47:00,81.7,68.3,30.13,North,0,0.0,0.0,64,0.00,,,0.00,WUHU216HW,2013-06-26 18:47:00,
2013-06-26 11:52:00,81.7,67.9,30.13,North,0,0.0,0.0,63,0.00,,,0.00,WUHU216HW,2013-06-26 18:52:00,
2013-06-26 11:57:00,81.4,67.5,30.13,North,0,0.0,0.0,63,0.00,,,0.00,WUHU216HW,2013-06-26 18:57:00,
2013-06-26 12:02:00,81.5,68.1,30.13,North,0,0.0,0.0,64,0.00,,,0.00,WUHU216HW,2013-06-26 19:02:00,
2013-06-26 12:07:00,81.5,67.7,30.13,North,0,0.0,0.0,63,0.00,,,0.00,WUHU216HW,2013-06-26 19:07:00,
2013-06-26 12:12:00,81.4,67.5,30.13,North,0,0.0,0.0,63,0.00,,,0.00,WUHU216HW,2013-06-26 19:12:00,
2013-06-26 12:17:00,81.4,67.1,30.13,North,0,0.0,0.0,62,0.00,,,0.00,WUHU216HW,2013-06-26 19:17:00,
2013-06-26 12:22:00,81.2,66.9,30.13,North,0,0.0,0.0,62,0.00,,,0.00,WUHU216HW,2013-06-26 19:22:00,
2013-06-26 12:27:00,81.0,66.8,30.13,North,0,0.0,0.0,62,0.00,,,0.00,WUHU216HW,2013-06-26 19:27:00,
2013-06-26 12:32:00,80.6,66.4,30.13,North,0,0.0,0.0,62,0.00,,,0.00,WUHU216HW,2013-06-26 19:32:00,
2013-06-26 12:37:00,80.6,66.9,30.13,North,0,0.0,0.0,63,0.00,,,0.00,WUHU216HW,2013-06-26 19:37:00,
2013-06-26 12:42:00,80.8,66.6,30.13,North,0,0.0,0.0,62,0.00,,,0.00,WUHU216HW,2013-06-26 19:42:00,
2013-06-26 12:47:00,80.6,66.4,30.14,North,0,0.0,0.0,62,0.00,,,0.00,WUHU216HW,2013-06-26 19:47:00,
2013-06-26 12:52:00,80.1,65.5,30.14,North,0,0.0,0.0,61,0.00,,,0.00,WUHU216HW,2013-06-26 19:52:00,
2013-06-26 12:57:00,80.1,66.3,30.14,North,0,0.0,0.0,63,0.00,,,0.00,WUHU216HW,2013-06-26 19:57:00,
2013-06-26 13:02:00,80.1,66.3,30.13,North,0,0.0,0.0,63,0.00,,,0.00,WUHU216HW,2013-06-26 20:02:00,
2013-06-26 13:07:00,80.3,66.1,30.13,North,0,0.0,0.0,62,0.00,,,0.00,WUHU216HW,2013-06-26 20:07:00,
2013-06-26 13:12:00,80.3,66.1,30.13,North,0,0.0,0.0,62,0.00,,,0.00,WUHU216HW,2013-06-26 20:12:00,
2013-06-26 13:17:00,79.9,65.8,30.13,North,0,0.0,0.0,62,0.00,,,0.00,WUHU216HW,2013-06-26 20:17:00,
2013-06-26 13:22:00,80.3,66.1,30.13,North,0,0.0,0.0,62,0.00,,,0.00,WUHU216HW,2013-06-26 20:22:00,
2013-06-26 13:27:00,80.1,65.5,30.13,North,0,0.0,0.0,61,0.00,,,0.00,WUHU216HW,2013-06-26 20:27:00,
2013-06-26 13:32:00,79.9,65.8,30.13,North,0,0.0,0.0,62,0.00,,,0.00,WUHU216HW,2013-06-26 20:32:00,
2013-06-26 13:37:00,79.9,65.4,30.13,North,0,0.0,0.0,61,0.00,,,0.00,WUHU216HW,2013-06-26 20:37:00,
2013-06-26 13:42:00,79.9,65.4,30.13,North,0,0.0,0.0,61,0.00,,,0.00,WUHU216HW,2013-06-26 20:42:00,
2013-06-26 13:47:00,79.6,64.5,30.13,North,0,0.0,0.0,60,0.00,,,0.00,WUHU216HW,2013-06-26 20:47:00,
2013-06-26 13:52:00,79.2,64.6,30.13,North,0,0.0,0.0,61,0.00,,,0.00,WUHU216HW,2013-06-26 20:52:00,
2013-06-26 13:57:00,79.2,64.6,30.13,North,0,0.0,0.0,61,0.00,,,0.00,WUHU216HW,2013-06-26 20:57:00,
2013-06-26 14:02:00,79.4,65.3,30.13,North,0,0.0,0.0,62,0.00,,,0.00,WUHU216HW,2013-06-26 21:02:00,
2013-06-26 14:07:00,79.4,64.8,30.13,North,0,0.0,0.0,61,0.00,,,0.00,WUHU216HW,2013-06-26 21:07:00,
2013-06-26 14:12:00,78.7,63.7,30.13,North,0,0.0,0.0,60,0.00,,,0.00,WUHU216HW,2013-06-26 21:12:00,
2013-06-26 14:17:00,77.8,63.7,30.13,North,0,0.0,0.0,62,0.00,,,0.00,WUHU216HW,2013-06-26 21:17:00,
2013-06-26 14:22:00,77.4,63.4,30.13,North,0,0.0,0.0,62,0.00,,,0.00,WUHU216HW,2013-06-26 21:22:00,
2013-06-26 14:27:00,76.7,62.6,30.13,North,0,0.0,0.0,62,0.00,,,0.00,WUHU216HW,2013-06-26 21:27:00,
2013-06-26 14:32:00,75.8,62.3,30.13,North,0,0.0,0.0,63,0.00,,,0.00,WUHU216HW,2013-06-26 21:32:00,
2013-06-26 14:38:00,75.2,62.2,30.13,North,0,0.0,0.0,64,0.00,,,0.00,WUHU216HW,2013-06-26 21:38:00,
2013-06-26 14:43:00,74.9,62.3,30.12,North,0,0.0,0.0,65,0.00,,,0.00,WUHU216HW,2013-06-26 21:43:00,
2013-06-26 14:48:00,74.5,62.4,30.12,North,0,0.0,0.0,66,0.00,,,0.00,WUHU216HW,2013-06-26 21:48:00,
2013-06-26 14:53:00,74.3,62.2,30.12,North,0,0.0,0.0,66,0.00,,,0.00,WUHU216HW,2013-06-26 21:53:00,
2013-06-26 14:58:00,74.3,62.2,30.13,North,0,0.0,0.0,66,0.00,,,0.00,WUHU216HW,2013-06-26 21:58:00,
2013-06-26 15:03:00,74.2,62.1,30.13,North,0,0.0,0.0,66,0.00,,,0.00,WUHU216HW,2013-06-26 22:03:00,
2013-06-26 15:08:00,73.8,62.2,30.12,North,0,0.0,0.0,67,0.00,,,0.00,WUHU216HW,2013-06-26 22:08:00,
2013-06-26 15:13:00,73.6,62.0,30.12,North,0,0.0,0.0,67,0.00,,,0.00,WUHU216HW,2013-06-26 22:13:00,
2013-06-26 15:18:00,73.4,62.3,30.12,North,0,0.0,0.0,68,0.00,,,0.00,WUHU216HW,2013-06-26 22:18:00,
2013-06-26 15:23:00,73.6,62.5,30.12,North,0,0.0,0.0,68,0.00,,,0.00,WUHU216HW,2013-06-26 22:23:00,
2013-06-26 15:28:00,73.6,62.5,30.12,North,0,0.0,0.0,68,0.00,,,0.00,WUHU216HW,2013-06-26 22:28:00,
2013-06-26 15:33:00,73.8,62.7,30.12,North,0,0.0,0.0,68,0.00,,,0.00,WUHU216HW,2013-06-26 22:33:00,
2013-06-26 15:38:00,73.6,62.5,30.12,North,0,0.0,0.0,68,0.00,,,0.00,WUHU216HW,2013-06-26 22:38:00,
2013-06-26 15:43:00,73.4,62.7,30.12,North,0,0.0,0.0,69,0.00,,,0.00,WUHU216HW,2013-06-26 22:43:00,
2013-06-26 15:48:00,73.1,62.4,30.12,North,0,0.0,0.0,69,0.00,,,0.00,WUHU216HW,2013-06-26 22:48:00,
2013-06-26 15:53:00,73.1,62.4,30.12,North,0,0.0,0.0,69,0.00,,,0.00,WUHU216HW,2013-06-26 22:53:00,
2013-06-26 15:58:00,72.7,62.5,30.11,North,0,0.0,0.0,70,0.00,,,0.00,WUHU216HW,2013-06-26 22:58:00,
2013-06-26 16:03:00,72.5,62.3,30.11,North,0,0.0,0.0,70,0.00,,,0.00,WUHU216HW,2013-06-26 23:03:00,
2013-06-26 16:08:00,72.4,62.1,30.11,North,0,0.0,0.0,70,0.00,,,0.00,WUHU216HW,2013-06-26 23:08:00,
2013-06-26 16:13:00,71.6,61.4,30.11,North,0,0.0,0.0,70,0.00,,,0.00,WUHU216HW,2013-06-26 23:13:00,
2013-06-26 16:18:00,71.5,61.2,30.11,North,0,0.0,0.0,70,0.00,,,0.00,WUHU216HW,2013-06-26 23:18:00,
2013-06-26 16:23:00,71.8,61.6,30.11,North,0,0.0,0.0,70,0.00,,,0.00,WUHU216HW,2013-06-26 23:23:00,
2013-06-26 16:28:00,72.0,62.1,30.11,North,0,0.0,0.0,71,0.00,,,0.00,WUHU216HW,2013-06-26 23:28:00,
2013-06-26 16:33:00,71.8,61.6,30.11,North,0,0.0,0.0,70,0.00,,,0.00,WUHU216HW,2013-06-26 23:33:00,
2013-06-26 16:38:00,71.6,61.4,30.11,North,0,0.0,0.0,70,0.00,,,0.00,WUHU216HW,2013-06-26 23:38:00,
2013-06-26 16:43:00,71.5,61.2,30.11,North,0,0.0,0.0,70,0.00,,,0.00,WUHU216HW,2013-06-26 23:43:00,
2013-06-26 16:48:00,70.9,61.0,30.11,North,0,0.0,0.0,71,0.00,,,0.00,WUHU216HW,2013-06-26 23:48:00,
2013-06-26 16:53:00,70.7,61.2,30.11,North,0,0.0,0.0,72,0.00,,,0.00,WUHU216HW,2013-06-26 23:53:00,
2013-06-26 16:58:00,70.0,60.5,30.11,North,0,0.0,0.0,72,0.00,,,0.00,WUHU216HW,2013-06-26 23:58:00,
2013-06-26 17:03:00,69.7,60.9,30.11,North,0,0.0,0.0,74,0.00,,,0.00,WUHU216HW,2013-06-27 00:03:00,
2013-06-26 17:08:00,69.5,60.8,30.10,North,0,0.0,0.0,74,0.00,,,0.00,WUHU216HW,2013-06-27 00:08:00,
2013-06-26 17:13:00,69.5,60.8,30.10,North,0,0.0,0.0,74,0.00,,,0.00,WUHU216HW,2013-06-27 00:13:00,
2013-06-26 17:18:00,69.5,60.8,30.10,North,0,0.0,0.0,74,0.00,,,0.00,WUHU216HW,2013-06-27 00:18:00,
2013-06-26 17:23:00,69.5,60.8,30.10,North,0,0.0,0.0,74,0.00,,,0.00,WUHU216HW,2013-06-27 00:23:00,
2013-06-26 17:28:00,69.5,61.1,30.10,North,0,0.0,0.0,75,0.00,,,0.00,WUHU216HW,2013-06-27 00:28:00,
2013-06-26 17:33:00,69.3,60.6,30.10,North,0,0.0,0.0,74,0.00,,,0.00,WUHU216HW,2013-06-27 00:33:00,
2013-06-26 17:38:00,68.8,60.5,30.10,North,0,0.0,0.0,75,0.00,,,0.00,WUHU216HW,2013-06-27 00:38:00,
2013-06-26 17:43:00,68.6,60.3,30.10,North,0,0.0,0.0,75,0.00,,,0.00,WUHU216HW,2013-06-27 00:43:00,
2013-06-26 17:48:00,68.4,60.6,30.10,North,0,0.0,0.0,76,0.00,,,0.00,WUHU216HW,2013-06-27 00:48:00,
2013-06-26 17:53:00,68.2,60.4,30.10,North,0,0.0,0.0,76,0.00,,,0.00,WUHU216HW,2013-06-27 00:53:00,
2013-06-26 17:58:00,67.9,60.4,30.10,North,0,0.0,0.0,77,0.00,,,0.00,WUHU216HW,2013-06-27 00:58:00,
2013-06-26 18:03:00,67.5,60.0,30.10,North,0,0.0,0.0,77,0.00,,,0.00,WUHU216HW,2013-06-27 01:03:00,
2013-06-26 18:08:00,67.1,60.1,30.10,North,0,0.0,0.0,78,0.00,,,0.00,WUHU216HW,2013-06-27 01:08:00,
2013-06-26 18:13:00,66.6,60.0,30.10,North,0,0.0,0.0,79,0.00,,,0.00,WUHU216HW,2013-06-27 01:13:00,
2013-06-26 18:18:00,66.6,60.3,30.09,North,0,0.0,0.0,80,0.00,,,0.00,WUHU216HW,2013-06-27 01:18:00,
2013-06-26 18:23:00,66.4,60.1,30.10,North,0,0.0,0.0,80,0.00,,,0.00,WUHU216HW,2013-06-27 01:23:00,
2013-06-26 18:28:00,66.2,59.9,30.10,North,0,0.0,0.0,80,0.00,,,0.00,WUHU216HW,2013-06-27 01:28:00,
2013-06-26 18:33:00,65.9,60.0,30.10,North,0,0.0,0.0,81,0.00,,,0.00,WUHU216HW,2013-06-27 01:33:00,
2013-06-26 18:38:00,65.7,59.8,30.10,North,0,0.0,0.0,81,0.00,,,0.00,WUHU216HW,2013-06-27 01:38:00,
2013-06-26 18:43:00,65.3,59.4,30.10,North,0,0.0,0.0,81,0.00,,,0.00,WUHU216HW,2013-06-27 01:43:00,
2013-06-26 18:48:00,64.8,59.5,30.10,North,0,0.0,0.0,83,0.00,,,0.00,WUHU216HW,2013-06-27 01:48:00,
2013-06-26 18:53:00,64.6,59.1,30.10,North,0,0.0,0.0,82,0.00,,,0.00,WUHU216HW,2013-06-27 01:53:00,
2013-06-26 18:58:00,64.4,59.1,30.10,North,0,0.0,0.0,83,0.00,,,0.00,WUHU216HW,2013-06-27 01:58:00,
2013-06-26 19:03:00,64.4,59.1,30.10,North,0,0.0,0.0,83,0.00,,,0.00,WUHU216HW,2013-06-27 02:03:00,
2013-06-26 19:08:00,64.3,59.0,30.10,North,0,0.0,0.0,83,0.00,,,0.00,WUHU216HW,2013-06-27 02:08:00,
2013-06-26 19:13:00,64.1,59.1,30.10,North,0,0.0,0.0,84,0.00,,,0.00,WUHU216HW,2013-06-27 02:13:00,
2013-06-26 19:18:00,63.9,59.0,30.10,North,0,0.0,0.0,84,0.00,,,0.00,WUHU216HW,2013-06-27 02:18:00,
2013-06-26 19:23:00,63.7,59.1,30.10,North,0,0.0,0.0,85,0.00,,,0.00,WUHU216HW,2013-06-27 02:23:00,
2013-06-26 19:28:00,63.7,59.1,30.10,North,0,0.0,0.0,85,0.00,,,0.00,WUHU216HW,2013-06-27 02:28:00,
2013-06-26 19:33:00,63.4,58.8,30.10,North,0,0.0,0.0,85,0.00,,,0.00,WUHU216HW,2013-06-27 02:33:00,
2013-06-26 19:38:00,63.2,59.0,30.10,North,0,0.0,0.0,86,0.00,,,0.00,WUHU216HW,2013-06-27 02:38:00,
2013-06-26 19:43:00,63.0,58.8,30.10,North,0,0.0,0.0,86,0.00,,,0.00,WUHU216HW,2013-06-27 02:43:00,
2013-06-26 19:48:00,63.0,58.8,30.10,North,0,0.0,0.0,86,0.00,,,0.00,WUHU216HW,2013-06-27 02:48:00,
2013-06-26 19:53:00,62.8,59.0,30.10,North,0,0.0,0.0,87,0.00,,,0.00,WUHU216HW,2013-06-27 02:53:00,
2013-06-26 19:58:00,62.6,58.8,30.10,North,0,0.0,0.0,87,0.00,,,0.00,WUHU216HW,2013-06-27 02:58:00,
2013-06-26 20:03:00,62.5,58.6,30.10,North,0,0.0,0.0,87,0.00,,,0.00,WUHU216HW,2013-06-27 03:03:00,
2013-06-26 20:08:00,62.1,58.6,30.10,North,0,0.0,0.0,88,0.00,,,0.00,WUHU216HW,2013-06-27 03:08:00,
2013-06-26 20:13:00,61.9,58.4,30.10,North,0,0.0,0.0,88,0.00,,,0.00,WUHU216HW,2013-06-27 03:13:00,
2013-06-26 20:18:00,61.9,58.4,30.10,North,0,0.0,0.0,88,0.00,,,0.00,WUHU216HW,2013-06-27 03:18:00,
2013-06-26 20:23:00,61.7,58.5,30.10,North,0,0.0,0.0,89,0.00,,,0.00,WUHU216HW,2013-06-27 03:23:00,
2013-06-26 20:28:00,61.7,58.9,30.10,North,0,0.0,0.0,90,0.00,,,0.00,WUHU216HW,2013-06-27 03:28:00,
2013-06-26 20:33:00,61.6,58.7,30.10,North,0,0.0,0.0,90,0.00,,,0.00,WUHU216HW,2013-06-27 03:33:00,
2013-06-26 20:38:00,61.6,58.7,30.10,North,0,0.0,0.0,90,0.00,,,0.00,WUHU216HW,2013-06-27 03:38:00,
2013-06-26 20:43:00,61.6,58.7,30.10,North,0,0.0,0.0,90,0.00,,,0.00,WUHU216HW,2013-06-27 03:43:00,
2013-06-26 20:48:00,61.6,58.7,30.11,North,0,0.0,0.0,90,0.00,,,0.00,WUHU216HW,2013-06-27 03:48:00,
2013-06-26 20:53:00,61.6,58.7,30.11,North,0,0.0,0.0,90,0.00,,,0.00,WUHU216HW,2013-06-27 03:53:00,
2013-06-26 20:58:00,61.4,58.5,30.11,North,0,0.0,0.0,90,0.00,,,0.00,WUHU216HW,2013-06-27 03:58:00,
2013-06-26 21:03:00,61.4,58.5,30.11,North,0,0.0,0.0,90,0.00,,,0.00,WUHU216HW,2013-06-27 04:03:00,
2013-06-26 21:08:00,61.4,58.5,30.11,North,0,0.0,0.0,90,0.00,,,0.00,WUHU216HW,2013-06-27 04:08:00,
2013-06-26 21:13:00,61.4,58.5,30.11,North,0,0.0,0.0,90,0.00,,,0.00,WUHU216HW,2013-06-27 04:13:00,
2013-06-26 21:18:00,61.4,58.5,30.11,North,0,0.0,0.0,90,0.00,,,0.00,WUHU216HW,2013-06-27 04:18:00,
2013-06-26 21:23:00,61.4,58.5,30.12,North,0,0.0,0.0,90,0.00,,,0.00,WUHU216HW,2013-06-27 04:23:00,
2013-06-26 21:28:00,61.2,58.3,30.12,North,0,0.0,0.0,90,0.00,,,0.00,WUHU216HW,2013-06-27 04:28:00,
2013-06-26 21:33:00,61.2,58.6,30.12,North,0,0.0,0.0,91,0.00,,,0.00,WUHU216HW,2013-06-27 04:33:00,
2013-06-26 21:38:00,61.2,58.3,30.12,North,0,0.0,0.0,90,0.00,,,0.00,WUHU216HW,2013-06-27 04:38:00,
2013-06-26 21:43:00,61.2,58.3,30.12,North,0,0.0,0.0,90,0.00,,,0.00,WUHU216HW,2013-06-27 04:43:00,
2013-06-26 21:48:00,61.2,58.3,30.12,North,0,0.0,0.0,90,0.00,,,0.00,WUHU216HW,2013-06-27 04:48:00,
2013-06-26 21:53:00,61.2,58.3,30.13,North,0,0.0,0.0,90,0.00,,,0.00,WUHU216HW,2013-06-27 04:53:00,
2013-06-26 21:58:00,61.2,58.3,30.13,North,0,0.0,0.0,90,0.00,,,0.00,WUHU216HW,2013-06-27 04:58:00,
2013-06-26 22:03:00,61.2,58.3,30.13,North,0,0.0,0.0,90,0.00,,,0.00,WUHU216HW,2013-06-27 05:03:00,
2013-06-26 22:08:00,61.2,58.3,30.13,North,0,0.0,0.0,90,0.00,,,0.00,WUHU216HW,2013-06-27 05:08:00,
2013-06-26 22:13:00,61.2,58.3,30.13,North,0,0.0,0.0,90,0.00,,,0.00,WUHU216HW,2013-06-27 05:13:00,
2013-06-26 22:18:00,61.2,58.3,30.13,North,0,0.0,0.0,90,0.00,,,0.00,WUHU216HW,2013-06-27 05:18:00,
2013-06-26 22:23:00,61.0,58.1,30.13,North,0,0.0,0.0,90,0.00,,,0.00,WUHU216HW,2013-06-27 05:23:00,
2013-06-26 22:28:00,60.8,58.0,30.13,North,0,0.0,0.0,90,0.00,,,0.00,WUHU216HW,2013-06-27 05:28:00,
2013-06-26 22:33:00,60.8,58.0,30.13,North,0,0.0,0.0,90,0.00,,,0.00,WUHU216HW,2013-06-27 05:33:00,
2013-06-26 22:38:00,60.8,58.0,30.14,North,0,0.0,0.0,90,0.00,,,0.00,WUHU216HW,2013-06-27 05:38:00,
2013-06-26 22:43:00,60.7,57.8,30.13,North,0,0.0,0.0,90,0.00,,,0.00,WUHU216HW,2013-06-27 05:43:00,
2013-06-26 22:48:00,60.7,58.1,30.13,North,0,0.0,0.0,91,0.00,,,0.00,WUHU216HW,2013-06-27 05:48:00,
2013-06-26 22:53:00,60.5,57.9,30.14,North,0,0.0,0.0,91,0.00,,,0.00,WUHU216HW,2013-06-27 05:53:00,
2013-06-26 22:58:00,60.5,57.9,30.14,North,0,0.0,0.0,91,0.00,,,0.00,WUHU216HW,2013-06-27 05:58:00,
2013-06-26 23:03:00,60.5,57.9,30.14,North,0,0.0,0.0,91,0.00,,,0.00,WUHU216HW,2013-06-27 06:03:00,
2013-06-26 23:08:00,60.5,57.9,30.14,North,0,0.0,0.0,91,0.00,,,0.00,WUHU216HW,2013-06-27 06:08:00,
2013-06-26 23:13:00,60.3,57.7,30.15,North,0,0.0,0.0,91,0.00,,,0.00,WUHU216HW,2013-06-27 06:13:00,
2013-06-26 23:18:00,60.3,57.7,30.15,North,0,0.0,0.0,91,0.00,,,0.00,WUHU216HW,2013-06-27 06:18:00,
2013-06-26 23:23:00,60.1,57.5,30.15,North,0,0.0,0.0,91,0.00,,,0.00,WUHU216HW,2013-06-27 06:23:00,
2013-06-26 23:28:00,60.1,57.5,30.15,North,0,0.0,0.0,91,0.00,,,0.00,WUHU216HW,2013-06-27 06:28:00,
2013-06-26 23:33:00,60.1,57.5,30.15,North,0,0.0,0.0,91,0.00,,,0.00,WUHU216HW,2013-06-27 06:33:00,
2013-06-26 23:38:00,60.1,57.5,30.15,North,0,0.0,0.0,91,0.00,,,0.00,WUHU216HW,2013-06-27 06:38:00,
2013-06-26 23:43:00,59.9,57.3,30.15,North,0,0.0,0.0,91,0.00,,,0.00,WUHU216HW,2013-06-27 06:43:00,
2013-06-26 23:48:00,59.8,57.2,30.15,North,0,0.0,0.0,91,0.00,,,0.00,WUHU216HW,2013-06-27 06:48:00,
2013-06-26 23:53:00,59.8,57.2,30.15,North,0,0.0,0.0,91,0.00,,,0.00,WUHU216HW,2013-06-27 06:53:00,
2013-06-26 23:58:00,59.8,57.2,30.15,North,0,0.0,0.0,91,0.00,,,0.00,WUHU216HW,2013-06-27 06:58:00,